Weather History for Roatan, Honduras

Change the Weather History Date:

Tuesday, September 3, 2013

  Actual Average Record
Temperature  
Mean Temperature 80 °F -  
Max Temperature 85 °F 87 °F 93 °F (1998)
Min Temperature 75 °F 79 °F 69 °F (2007)
Cooling Degree Days 15    
Growing Degree Days 30 (Base 50)    
Moisture  
Dew Point 74 °F    
Average Humidity 75    
Maximum Humidity 89    
Minimum Humidity 58    
Precipitation  
Precipitation 0.00 in - - ()
Sea Level Pressure  
Sea Level Pressure 29.88 in    
Wind  
Wind Speed 3 mph ()    
Max Wind Speed 10 mph    
Max Gust Speed -    
Visibility 6.5 miles    
Events Thunderstorm    
Averages and records for this station are not official NWS values.
T = Trace of Precipitation, MM = Missing Value Source: Averaged Metar Reports

Daily Weather History Graph

Daily Weather History Graph

Search for Another Location

Airport:

Trip Planner

Search our weather history database for the weather conditions in past years. The results will help you decide how hot, cold, wet, or windy it might be!

Date:

Astronomy

Sep. 03, 2013 Rise Set
Actual Time 5:33 AM CST 5:57 PM CST
Civil Twilight 5:11 AM CST 6:19 PM CST
Nautical Twilight 4:45 AM CST 6:44 PM CST
Astronomical Twilight 4:20 AM CST 7:09 PM CST
Moon 3:54 AM CST (9/3) 4:40 PM CST (9/3)
Length of Visible Light 13h 07m
Length of Day
12h 24m
Waning Crescent, 3% of the Moon is Illuminated
Sep 3
Waning Crescent
Sep 5
New
Sep 12
First Quarter
Sep 19
Full
Sep 26
Last Quarter

Hourly Weather History & Observations

Time (CST) Temp. Heat Index Dew Point Humidity Pressure Visibility Wind Dir Wind Speed Gust Speed Precip Events Conditions
6:00 AM 80 °F - 74 °F 78% 29.86 in 12 mi WNW 2.3 mph - -   Haze
6:00 AM 78.8 °F - 75.2 °F 89% 29.86 in 6.2 mi WNW 2.3 mph - N/A   Mostly Cloudy
7:00 AM 80.6 °F 86.2 °F 75.2 °F 84% 29.89 in 6.2 mi North 3.5 mph - N/A   Mostly Cloudy
8:00 AM 82.4 °F 89.5 °F 75.2 °F 79% 29.89 in 5.0 mi Calm Calm - N/A Thunderstorm Thunderstorm
9:00 AM 83 °F - 76 °F 75% 29.91 in 6 mi Calm Calm - - Thunderstorm Thunderstorm
9:00 AM 84.2 °F 94.1 °F 77.0 °F 79% 29.92 in 6.2 mi Calm Calm - N/A Thunderstorm Thunderstorm
10:00 AM 84.2 °F 92.3 °F 75.2 °F 74% 29.92 in 1.9 mi SW 10.4 mph - N/A Thunderstorm Unknown
11:00 AM 80.6 °F 85.4 °F 73.4 °F 79% 29.95 in 3.1 mi NNE 5.8 mph - N/A Thunderstorm Unknown
12:00 PM 80 °F - 74 °F 77% 29.91 in 7 mi WSW 4.6 mph - - Thunderstorm Light Thunderstorm
12:00 PM 80.6 °F 85.4 °F 73.4 °F 79% 29.89 in 6.2 mi WSW 4.6 mph - N/A   Mostly Cloudy
1:00 PM 84.2 °F 90.9 °F 73.4 °F 70% 29.89 in 6.2 mi WSW 4.6 mph - N/A   Mostly Cloudy
2:00 PM 82.4 °F 88.2 °F 73.4 °F 74% 29.83 in 6.2 mi NNW 8.1 mph - N/A   Mostly Cloudy
3:00 PM 84 °F - 72 °F 58% 29.84 in 10 mi NNW 3.5 mph - -   Haze
3:00 PM 84.2 °F 89.6 °F 71.6 °F 66% 29.83 in 6.2 mi NNW 3.5 mph - N/A   Mostly Cloudy
4:00 PM 84.2 °F 90.9 °F 73.4 °F 70% 29.83 in 6.2 mi SW 3.5 mph - N/A   Mostly Cloudy
5:00 PM 84.2 °F 90.9 °F 73.4 °F 70% 29.83 in 6.2 mi NNW 2.3 mph - N/A   Mostly Cloudy
6:00 PM 82 °F - 73 °F 69% 29.85 in 10 mi North 2.3 mph - -   Haze
6:00 PM 82.4 °F 88.2 °F 73.4 °F 74% 29.86 in 6.2 mi North 2.3 mph - N/A   Mostly Cloudy
7:00 PM 80.6 °F 85.4 °F 73.4 °F 79% 29.86 in 6.2 mi North 2.3 mph - N/A   Mostly Cloudy
8:00 PM 78.8 °F - 73.4 °F 83% 29.89 in 6.2 mi North 3.5 mph - N/A   Partly Cloudy